Trinidad, CO

8:38 AM MST on February 23, 2018 (GMT -0700)
Stokes

Weather History for KTAD - June, 2013

Change the Weather History Date:

Monday, June 17, 2013

  Actual Average Record
Temperature  
Mean Temperature 69 °F 69 °F  
Max Temperature 85 °F 85 °F 97 °F (1960)
Min Temperature 52 °F 53 °F 42 °F (1962)
Degree Days  
Heating Degree Days 0 1  
Month to date heating degree days 21 34  
Since 1 June heating degree days 21 34  
Since 1 July heating degree days 5457 5529  
Cooling Degree Days 4 5  
Month to date cooling degree days 125 58  
Year to date cooling degree days 188 86  
Since 1 June cooling degree days 125 58  
Growing Degree Days 18 (Base 50)    
Moisture  
Dew Point 42 °F    
Average Humidity 42    
Maximum Humidity 66    
Minimum Humidity 17    
Precipitation  
Precipitation 0.08 in 0.04 in 1.48 in (1965)
Month to date precipitation 1.06 0.82  
Year to date precipitation 3.00 5.34  
Sea Level Pressure  
Sea Level Pressure 29.97 in    
Wind  
Wind Speed 13 mph (South)    
Max Wind Speed 29 mph    
Max Gust Speed 38 mph    
Visibility 10 miles    
Events Rain , Thunderstorm    
T = Trace of Precipitation, MM = Missing Value Source: NWS Daily Summary

Daily Weather History Graph

Daily Weather History Graph

Search for Another Location

Airport or City:

Trip Planner

Search our weather history database for the weather conditions in past years. The results will help you decide how hot, cold, wet, or windy it might be!

Date:

Astronomy

Jun. 17, 2013 Rise Set
Actual Time 5:36 AM MDT 8:20 PM MDT
Civil Twilight 5:05 AM MDT 8:51 PM MDT
Nautical Twilight 4:26 AM MDT 9:29 PM MDT
Astronomical Twilight 3:43 AM MDT 10:13 PM MDT
Moon 2:07 PM MDT (6/17) 1:06 AM MDT (6/17)
Length of Visible Light 15h 45m
Length of Day
14h 43m
First Quarter, 61% of the Moon is Illuminated
Jun 17
First Quarter
Jun 23
Full
Jun 29
Last Quarter
Jul 8
New
Jul 15
First Quarter

Hourly Weather History & Observations

Time (MDT) Temp. Dew Point Humidity Pressure Visibility Wind Dir Wind Speed Gust Speed Precip Events Conditions
12:54 AM 57.9 °F 45.0 °F 62% 29.93 in 10.0 mi WSW 11.5 mph - N/A   Clear
1:54 AM 57.0 °F 44.1 °F 62% 29.93 in 10.0 mi West 10.4 mph - N/A   Clear
2:54 AM 60.1 °F 43.0 °F 53% 29.92 in 10.0 mi Calm Calm - N/A   Clear
3:54 AM 53.1 °F 43.0 °F 69% 29.95 in 10.0 mi SW 6.9 mph - N/A   Clear
4:54 AM 54.0 °F 42.1 °F 64% 29.98 in 10.0 mi WSW 9.2 mph - N/A   Clear
5:54 AM 55.0 °F 41.0 °F 59% 30.01 in 10.0 mi WSW 11.5 mph - N/A   Clear
6:54 AM 60.1 °F 39.9 °F 47% 30.00 in 10.0 mi WSW 12.7 mph - N/A   Clear
7:54 AM 66.9 °F 39.9 °F 37% 30.00 in 10.0 mi WSW 13.8 mph - N/A   Clear
8:54 AM 73.9 °F 41.0 °F 30% 29.98 in 10.0 mi SSW 5.8 mph - N/A   Clear
9:54 AM 77.0 °F 39.9 °F 26% 29.98 in 10.0 mi SE 5.8 mph - N/A   Clear
10:54 AM 80.1 °F 37.9 °F 22% 29.97 in 10.0 mi ESE 9.2 mph - N/A   Clear
11:54 AM 82.9 °F 37.9 °F 20% 29.93 in 10.0 mi Variable 5.8 mph 16.1 mph N/A   Clear
12:54 PM 84.0 °F 36.0 °F 18% 29.92 in 10.0 mi NNE 10.4 mph - N/A   Partly Cloudy
1:11 PM 80.6 °F 30.2 °F 16% 30.17 in 10.0 mi North 6.9 mph 19.6 mph N/A Thunderstorm Thunderstorm
1:29 PM 71.6 °F 46.4 °F 41% 30.17 in 5.0 mi South 16.1 mph 27.6 mph 0.06 in Rain Heavy Rain
1:43 PM 73.4 °F 42.8 °F 33% 30.16 in 10.0 mi ESE 16.1 mph 33.4 mph 0.08 in Rain Light Rain
1:54 PM 79.0 °F 45.0 °F 30% 29.93 in 10.0 mi East 10.4 mph 25.3 mph 0.08 in   Scattered Clouds
2:54 PM 77.0 °F 39.9 °F 26% 29.91 in 10.0 mi SSE 19.6 mph 27.6 mph N/A   Partly Cloudy
3:54 PM 82.0 °F 41.0 °F 23% 29.89 in 10.0 mi South 19.6 mph 26.5 mph N/A   Partly Cloudy
4:54 PM 82.9 °F 37.9 °F 20% 29.89 in 10.0 mi WSW 24.2 mph 28.8 mph N/A   Clear
5:54 PM 81.0 °F 37.0 °F 21% 29.87 in 10.0 mi SW 12.7 mph - N/A   Clear
6:34 PM 73.4 °F 44.6 °F 36% 30.09 in 10.0 mi SE 27.6 mph 38.0 mph N/A   Clear
6:54 PM 73.9 °F 45.0 °F 35% 29.87 in 10.0 mi SE 24.2 mph 31.1 mph N/A   Clear
7:54 PM 70.0 °F 45.0 °F 41% 29.89 in 10.0 mi SE 13.8 mph 23.0 mph N/A   Clear
8:54 PM 66.0 °F 45.0 °F 47% 29.92 in 10.0 mi NNE 18.4 mph 24.2 mph N/A   Clear
9:54 PM 63.0 °F 46.9 °F 56% 29.96 in 10.0 mi East 13.8 mph - N/A   Clear
10:54 PM 64.0 °F 45.0 °F 50% 30.01 in 10.0 mi ESE 19.6 mph 25.3 mph N/A   Overcast
11:54 PM 62.1 °F 48.9 °F 62% 30.03 in 10.0 mi SE 17.3 mph 23.0 mph 0.00 in Rain , Thunderstorm Light Rain